,,Stat6,,Stat2,,Stat8,,Stat9,,Stat10,,Wind1,,Wind1,
time,status,PA1M_AVG,status,PR1M_SUM,status,RH1M_AVG,status,SR1M_AVG,status,TA1M_AVG,status,W1dAve1m,status,W1sAve1m,
2009-08-15, 00:00:00,VALID,918.962,VALID,0,VALID,100,VALID,-0.101885,VALID,18.6726,VALID,36,VALID,0,
2009-08-15, 00:01:00,VALID,918.932,VALID,0,VALID,100,VALID,-0.0849042,VALID,18.692,VALID,36,VALID,0,
2009-08-15, 00:02:00,VALID,918.946,VALID,0,VALID,100,VALID,-0.118866,VALID,18.6693,VALID,36,VALID,0,
2009-08-15, 00:03:00,VALID,918.955,VALID,0,VALID,100,VALID,-0.118866,VALID,18.6337,VALID,36,VALID,0,
2009-08-15, 00:04:00,VALID,918.965,VALID,0,VALID,100,VALID,-0.118866,VALID,18.6693,VALID,37,VALID,0,
2009-08-15, 00:05:00,VALID,918.969,VALID,0,VALID,100,VALID,-0.101885,VALID,18.7182,VALID,47,VALID,0,
2009-08-15, 00:06:00,VALID,918.952,VALID,0,VALID,100,VALID,-0.101885,VALID,18.7634,VALID,48,VALID,0.064098,
2009-08-15, 00:07:00,VALID,918.907,VALID,0,VALID,100,VALID,-0.101885,VALID,18.8058,VALID,40,VALID,0.00744048,
2009-08-15, 00:08:00,VALID,918.875,VALID,0,VALID,100,VALID,-0.101885,VALID,18.8053,VALID,28,VALID,0,
2009-08-15, 00:09:00,VALID,918.84,VALID,0,VALID,100,VALID,-0.101885,VALID,18.8116,VALID,28,VALID,0,
2009-08-15, 00:10:00,VALID,918.819,VALID,0,VALID,100,VALID,-0.0849042,VALID,18.8186,VALID,28,VALID,0,
2009-08-15, 00:11:00,VALID,918.81,VALID,0,VALID,100,VALID,-0.0849042,VALID,18.8051,VALID,28,VALID,0,
2009-08-15, 00:12:00,VALID,918.787,VALID,0,VALID,100,VALID,-0.0509425,VALID,18.7757,VALID,28,VALID,0,
2009-08-15, 00:13:00,VALID,918.761,VALID,0,VALID,100,VALID,0.0169808,VALID,18.7358,VALID,28,VALID,0,
2009-08-15, 00:14:00,VALID,918.742,VALID,0,VALID,100,VALID,0.0169808,VALID,18.7198,VALID,28,VALID,0,
2009-08-15, 00:15:00,VALID,918.729,VALID,0,VALID,100,VALID,0,VALID,18.6904,VALID,28,VALID,0,
2009-08-15, 00:16:00,VALID,918.721,VALID,0,VALID,100,VALID,0.0169808,VALID,18.661,VALID,28,VALID,0,
2009-08-15, 00:17:00,VALID,918.726,VALID,0,VALID,100,VALID,0.0169808,VALID,18.622,VALID,28,VALID,0,
2009-08-15, 00:18:00,VALID,918.724,VALID,0,VALID,100,VALID,0,VALID,18.6031,VALID,28,VALID,0,
2009-08-15, 00:19:00,VALID,918.734,VALID,0,VALID,100,VALID,0.0169808,VALID,18.5607,VALID,35,VALID,0,
2009-08-15, 00:20:00,VALID,918.719,VALID,0,VALID,100,VALID,0.0169808,VALID,18.5444,VALID,40,VALID,0,
2009-08-15, 00:21:00,VALID,918.699,VALID,0,VALID,100,VALID,0,VALID,18.5574,VALID,40,VALID,0,
2009-08-15, 00:22:00,VALID,918.652,VALID,0,VALID,100,VALID,0.0339617,VALID,18.5766,VALID,40,VALID,0,
2009-08-15, 00:23:00,VALID,918.622,VALID,0,VALID,100,VALID,0.0509425,VALID,18.632,VALID,40,VALID,0,
2009-08-15, 00:24:00,VALID,918.603,VALID,0,VALID,100,VALID,0,VALID,18.6547,VALID,40,VALID,0,
2009-08-15, 00:25:00,VALID,918.598,VALID,0,VALID,100,VALID,0,VALID,18.6482,VALID,40,VALID,0,
2009-08-15, 00:26:00,VALID,918.592,VALID,0,VALID,100,VALID,0.0339617,VALID,18.6288,VALID,40,VALID,0,
2009-08-15, 00:27:00,VALID,918.586,VALID,0,VALID,100,VALID,-0.0169808,VALID,18.5743,VALID,42,VALID,0,
2009-08-15, 00:28:00,VALID,918.572,VALID,0,VALID,100,VALID,-0.0679233,VALID,18.5164,VALID,43,VALID,0,
2009-08-15, 00:29:00,VALID,918.561,VALID,0,VALID,100,VALID,-0.101885,VALID,18.4875,VALID,43,VALID,0,
2009-08-15, 00:30:00,VALID,918.562,VALID,0,VALID,100,VALID,-0.101885,VALID,18.4546,VALID,44,VALID,0,
2009-08-15, 00:31:00,VALID,918.555,VALID,0,VALID,100,VALID,-0.0679233,VALID,18.4807,VALID,48,VALID,0,
2009-08-15, 00:32:00,VALID,918.546,VALID,0,VALID,100,VALID,-0.0679233,VALID,18.5294,VALID,49,VALID,0,
2009-08-15, 00:33:00,VALID,918.541,VALID,0,VALID,100,VALID,-0.0849042,VALID,18.5783,VALID,71,VALID,0,
2009-08-15, 00:34:00,VALID,918.538,VALID,0,VALID,100,VALID,-0.118866,VALID,18.5621,VALID,97,VALID,0,
2009-08-15, 00:35:00,VALID,918.551,VALID,0,VALID,100,VALID,-0.101885,VALID,18.5426,VALID,97,VALID,0,
2009-08-15, 00:36:00,VALID,918.554,VALID,0,VALID,100,VALID,-0.101885,VALID,18.5363,VALID,97,VALID,0,
2009-08-15, 00:37:00,VALID,918.565,VALID,0,VALID,100,VALID,-0.101885,VALID,18.5099,VALID,116,VALID,0,
2009-08-15, 00:38:00,VALID,918.561,VALID,0,VALID,100,VALID,-0.135847,VALID,18.5037,VALID,159,VALID,0,
2009-08-15, 00:39:00,VALID,918.582,VALID,0,VALID,100,VALID,-0.0849042,VALID,18.4682,VALID,160,VALID,0,
2009-08-15, 00:40:00,VALID,918.577,VALID,0,VALID,100,VALID,-0.101885,VALID,18.4228,VALID,160,VALID,0,
2009-08-15, 00:41:00,VALID,918.58,VALID,0,VALID,100,VALID,-0.101885,VALID,18.3869,VALID,160,VALID,0,
2009-08-15, 00:42:00,VALID,918.554,VALID,0,VALID,100,VALID,-0.0339617,VALID,18.3957,VALID,162,VALID,0,
2009-08-15, 00:43:00,VALID,918.544,VALID,0,VALID,100,VALID,0.0169808,VALID,18.4536,VALID,162,VALID,0,
2009-08-15, 00:44:00,VALID,918.522,VALID,0,VALID,100,VALID,0.0509425,VALID,18.4858,VALID,169,VALID,0.0145089,
2009-08-15, 00:45:00,VALID,918.486,VALID,0,VALID,100,VALID,0.0169808,VALID,18.5178,VALID,178,VALID,0,
2009-08-15, 00:46:00,VALID,918.451,VALID,0,VALID,100,VALID,0.0509425,VALID,18.505,VALID,166,VALID,0,
2009-08-15, 00:47:00,VALID,918.434,VALID,0,VALID,100,VALID,0.0679233,VALID,18.4207,VALID,164,VALID,0,
2009-08-15, 00:48:00,VALID,918.39,VALID,0,VALID,100,VALID,0.0339617,VALID,18.4796,VALID,164,VALID,0,
2009-08-15, 00:49:00,VALID,918.393,VALID,0,VALID,100,VALID,0.0169808,VALID,18.5217,VALID,164,VALID,0,
2009-08-15, 00:50:00,VALID,918.375,VALID,0,VALID,100,VALID,0.0339617,VALID,18.5379,VALID,164,VALID,0,
2009-08-15, 00:51:00,VALID,918.358,VALID,0,VALID,100,VALID,0.0679233,VALID,18.5637,VALID,164,VALID,0,
2009-08-15, 00:52:00,VALID,918.368,VALID,0,VALID,100,VALID,0.0339617,VALID,18.5637,VALID,164,VALID,0,
2009-08-15, 00:53:00,VALID,918.389,VALID,0,VALID,100,VALID,0.0339617,VALID,18.5474,VALID,164,VALID,0,
2009-08-15, 00:54:00,VALID,918.404,VALID,0,VALID,100,VALID,0.0169808,VALID,18.5185,VALID,164,VALID,0,
2009-08-15, 00:55:00,VALID,918.426,VALID,0,VALID,100,VALID,0,VALID,18.4566,VALID,165,VALID,0.0463299,
2009-08-15, 00:56:00,VALID,918.442,VALID,0,VALID,100,VALID,0.0509425,VALID,18.4307,VALID,171,VALID,0.00475543,
2009-08-15, 00:57:00,VALID,918.454,VALID,0,VALID,100,VALID,-0.0339617,VALID,18.4478,VALID,172,VALID,0.00152439,
2009-08-15, 00:58:00,VALID,918.472,VALID,0,VALID,100,VALID,-0.0679233,VALID,18.4515,VALID,172,VALID,0,
2009-08-15, 00:59:00,VALID,918.488,VALID,0,VALID,100,VALID,-0.101885,VALID,18.4226,VALID,172,VALID,0,
2009-08-15, 01:00:00,VALID,918.499,VALID,0,VALID,100,VALID,-0.101885,VALID,18.3869,VALID,163,VALID,0.0121528,
2009-08-15, 01:01:00,VALID,918.51,VALID,0,VALID,100,VALID,-0.101885,VALID,18.4481,VALID,153,VALID,0.00109012,
2009-08-15, 01:02:00,VALID,918.518,VALID,0,VALID,100,VALID,-0.0509425,VALID,18.4451,VALID,143,VALID,0,
2009-08-15, 01:03:00,VALID,918.519,VALID,0,VALID,100,VALID,-0.0679233,VALID,18.4416,VALID,130,VALID,0,
2009-08-15, 01:04:00,VALID,918.525,VALID,0,VALID,100,VALID,-0.0339617,VALID,18.4548,VALID,131,VALID,0,
2009-08-15, 01:05:00,VALID,918.518,VALID,0,VALID,100,VALID,-0.0679233,VALID,18.5037,VALID,137,VALID,0,
2009-08-15, 01:06:00,VALID,918.53,VALID,0,VALID,100,VALID,-0.101885,VALID,18.5424,VALID,142,VALID,0,
2009-08-15, 01:07:00,VALID,918.57,VALID,0,VALID,100,VALID,-0.0509425,VALID,18.5848,VALID,148,VALID,0,
2009-08-15, 01:08:00,VALID,918.608,VALID,0,VALID,100,VALID,-0.0849042,VALID,18.5746,VALID,123,VALID,0,
2009-08-15, 01:09:00,VALID,918.645,VALID,0,VALID,100,VALID,-0.0679233,VALID,18.5261,VALID,107,VALID,0,
2009-08-15, 01:10:00,VALID,918.676,VALID,0,VALID,100,VALID,-0.0679233,VALID,18.5519,VALID,127,VALID,0.0432413,
2009-08-15, 01:11:00,VALID,918.684,VALID,0,VALID,100,VALID,-0.0509425,VALID,18.588,VALID,134,VALID,0.0654297,
2009-08-15, 01:12:00,VALID,918.667,VALID,0,VALID,100,VALID,-0.0509425,VALID,18.5945,VALID,128,VALID,0.0347222,
2009-08-15, 01:13:00,VALID,918.637,VALID,0,VALID,100,VALID,-0.101885,VALID,18.5815,VALID,128,VALID,0.178544,
2009-08-15, 01:14:00,VALID,918.585,VALID,0,VALID,100,VALID,-0.0849042,VALID,18.5845,VALID,134,VALID,0.269804,
2009-08-15, 01:15:00,VALID,918.549,VALID,0,VALID,100,VALID,-0.0679233,VALID,18.5815,VALID,134,VALID,0,
2009-08-15, 01:16:00,VALID,918.505,VALID,0,VALID,100,VALID,-0.0849042,VALID,18.5426,VALID,131,VALID,0.000190549,
2009-08-15, 01:17:00,VALID,918.479,VALID,0,VALID,100,VALID,-0.0679233,VALID,18.5394,VALID,122,VALID,0.0228365,
2009-08-15, 01:18:00,VALID,918.46,VALID,0,VALID,100,VALID,-0.0679233,VALID,18.5394,VALID,129,VALID,0.288086,
2009-08-15, 01:19:00,VALID,918.452,VALID,0,VALID,100,VALID,-0.0679233,VALID,18.5162,VALID,130,VALID,0.162997,
2009-08-15, 01:20:00,VALID,918.443,VALID,0,VALID,100,VALID,-0.0169808,VALID,18.5034,VALID,133,VALID,0,
2009-08-15, 01:21:00,VALID,918.419,VALID,0,VALID,100,VALID,-0.0339617,VALID,18.49,VALID,125,VALID,0,
2009-08-15, 01:22:00,VALID,918.404,VALID,0,VALID,100,VALID,-0.0679233,VALID,18.5129,VALID,126,VALID,0,
2009-08-15, 01:23:00,VALID,918.369,VALID,0,VALID,100,VALID,-0.0679233,VALID,18.5685,VALID,131,VALID,0.21875,
2009-08-15, 01:24:00,VALID,918.338,VALID,0,VALID,100,VALID,-0.0169808,VALID,18.5811,VALID,134,VALID,0.0836509,
2009-08-15, 01:25:00,VALID,918.32,VALID,0,VALID,100,VALID,-0.0339617,VALID,18.5813,VALID,138,VALID,0.110777,
2009-08-15, 01:26:01,VALID,918.292,VALID,0,VALID,100,VALID,-0.0339617,VALID,18.5908,VALID,141,VALID,0,
2009-08-15, 01:27:00,VALID,918.291,VALID,0,VALID,100,VALID,-0.0679233,VALID,18.5815,VALID,131,VALID,0,
2009-08-15, 01:28:00,VALID,918.279,VALID,0,VALID,100,VALID,-0.0679233,VALID,18.5716,VALID,134,VALID,0.0010016,
2009-08-15, 01:29:01,VALID,918.263,VALID,0,VALID,100,VALID,-0.101885,VALID,18.5583,VALID,131,VALID,0,
2009-08-15, 01:30:00,VALID,918.24,VALID,0,VALID,100,VALID,-0.0509425,VALID,18.5848,VALID,147,VALID,0,
2009-08-15, 01:31:00,VALID,918.227,VALID,0,VALID,100,VALID,-0.0679233,VALID,18.601,VALID,133,VALID,0,
2009-08-15, 01:32:01,VALID,918.214,VALID,0,VALID,100,VALID,-0.101885,VALID,18.6107,VALID,134,VALID,0.13722,
2009-08-15, 01:33:00,VALID,918.195,VALID,0,VALID,100,VALID,-0.0169808,VALID,18.6397,VALID,138,VALID,0.514695,
2009-08-15, 01:34:00,VALID,918.174,VALID,0,VALID,100,VALID,-0.0679233,VALID,18.6691,VALID,139,VALID,0.0830305,
2009-08-15, 01:35:00,VALID,918.168,VALID,0,VALID,100,VALID,-0.0849042,VALID,18.6624,VALID,140,VALID,0,
2009-08-15, 01:36:00,VALID,918.152,VALID,0,VALID,100,VALID,-0.101885,VALID,18.6624,VALID,150,VALID,0,
2009-08-15, 01:37:00,VALID,918.125,VALID,0,VALID,100,VALID,-0.0849042,VALID,18.6756,VALID,160,VALID,0,
2009-08-15, 01:38:00,VALID,918.131,VALID,0,VALID,100,VALID,-0.0849042,VALID,18.6821,VALID,162,VALID,0,
2009-08-15, 01:39:01,VALID,918.116,VALID,0,VALID,100,VALID,-0.0849042,VALID,18.6818,VALID,150,VALID,0,
2009-08-15, 01:40:00,VALID,918.139,VALID,0,VALID,100,VALID,-0.0679233,VALID,18.6754,VALID,149,VALID,0,
2009-08-15, 01:41:00,VALID,918.145,VALID,0,VALID,100,VALID,-0.0679233,VALID,18.6656,VALID,149,VALID,0,
2009-08-15, 01:42:01,VALID,918.158,VALID,0,VALID,100,VALID,-0.0509425,VALID,18.613,VALID,147,VALID,0,
2009-08-15, 01:43:00,VALID,918.156,VALID,0,VALID,100,VALID,0,VALID,18.6485,VALID,136,VALID,0,
2009-08-15, 01:44:00,VALID,918.156,VALID,0,VALID,100,VALID,0.0169808,VALID,18.6512,VALID,136,VALID,0,
2009-08-15, 01:45:00,VALID,918.143,VALID,0,VALID,100,VALID,0.0339617,VALID,18.6739,VALID,136,VALID,0,
2009-08-15, 01:46:00,VALID,918.127,VALID,0,VALID,100,VALID,0.0169808,VALID,18.6837,VALID,136,VALID,0,
2009-08-15, 01:47:00,VALID,918.095,VALID,0,VALID,100,VALID,0.0509425,VALID,18.6902,VALID,136,VALID,0,
2009-08-15, 01:48:01,VALID,918.056,VALID,0,VALID,100,VALID,0.0169808,VALID,18.7029,VALID,141,VALID,0,
2009-08-15, 01:49:01,VALID,918.02,VALID,0,VALID,100,VALID,0.0169808,VALID,18.7099,VALID,143,VALID,0,
2009-08-15, 01:50:00,VALID,917.994,VALID,0,VALID,100,VALID,0.0339617,VALID,18.7159,VALID,143,VALID,0,
2009-08-15, 01:51:00,VALID,917.982,VALID,0,VALID,100,VALID,0.0169808,VALID,18.7323,VALID,143,VALID,0,
2009-08-15, 01:52:00,VALID,917.976,VALID,0,VALID,100,VALID,0,VALID,18.6997,VALID,141,VALID,0,
2009-08-15, 01:53:01,VALID,917.933,VALID,0,VALID,100,VALID,0,VALID,18.6872,VALID,140,VALID,0,
2009-08-15, 01:54:01,VALID,917.914,VALID,0,VALID,100,VALID,0.0339617,VALID,18.6869,VALID,141,VALID,0,
2009-08-15, 01:55:01,VALID,917.89,VALID,0,VALID,100,VALID,0.0339617,VALID,18.6772,VALID,162,VALID,0,
2009-08-15, 01:56:00,VALID,917.867,VALID,0,VALID,100,VALID,0.0169808,VALID,18.6837,VALID,168,VALID,0,
2009-08-15, 01:57:00,VALID,917.826,VALID,0,VALID,100,VALID,-0.0509425,VALID,18.6714,VALID,171,VALID,0,
2009-08-15, 01:58:00,VALID,917.791,VALID,0,VALID,100,VALID,-0.101885,VALID,18.6619,VALID,171,VALID,0,
2009-08-15, 01:59:00,VALID,917.761,VALID,0,VALID,100,VALID,-0.101885,VALID,18.6756,VALID,170,VALID,0,
2009-08-15, 02:00:00,VALID,917.729,VALID,0,VALID,100,VALID,-0.101885,VALID,18.6751,VALID,170,VALID,0,
2009-08-15, 02:01:00,VALID,917.705,VALID,0,VALID,100,VALID,-0.0849042,VALID,18.6851,VALID,174,VALID,0,
2009-08-15, 02:02:00,VALID,917.682,VALID,0,VALID,100,VALID,-0.0849042,VALID,18.6853,VALID,170,VALID,0,
2009-08-15, 02:03:00,VALID,917.66,VALID,0,VALID,100,VALID,-0.0679233,VALID,18.6814,VALID,167,VALID,0,
2009-08-15, 02:04:00,VALID,917.653,VALID,0,VALID,100,VALID,-0.101885,VALID,18.6784,VALID,181,VALID,0,
2009-08-15, 02:05:01,VALID,917.637,VALID,0,VALID,100,VALID,-0.118866,VALID,18.6589,VALID,191,VALID,0,
2009-08-15, 02:06:00,VALID,917.614,VALID,0,VALID,100,VALID,-0.0849042,VALID,18.6554,VALID,185,VALID,0,
2009-08-15, 02:07:01,VALID,917.625,VALID,0,VALID,100,VALID,-0.0849042,VALID,18.6629,VALID,177,VALID,0,
2009-08-15, 02:08:01,VALID,917.591,VALID,0,VALID,100,VALID,-0.101885,VALID,18.6691,VALID,177,VALID,0,
2009-08-15, 02:09:00,VALID,917.582,VALID,0,VALID,100,VALID,-0.101885,VALID,18.6689,VALID,177,VALID,0,
2009-08-15, 02:10:00,VALID,917.551,VALID,0,VALID,100,VALID,-0.101885,VALID,18.6853,VALID,177,VALID,0,
2009-08-15, 02:11:00,VALID,917.551,VALID,0,VALID,100,VALID,-0.0849042,VALID,18.6821,VALID,177,VALID,0,
2009-08-15, 02:12:01,VALID,917.549,VALID,0,VALID,100,VALID,-0.0509425,VALID,18.7008,VALID,177,VALID,0,
2009-08-15, 02:13:01,VALID,917.534,VALID,0,VALID,100,VALID,0.0169808,VALID,18.7004,VALID,177,VALID,0,
2009-08-15, 02:14:00,VALID,917.548,VALID,0,VALID,100,VALID,0.0339617,VALID,18.6505,VALID,177,VALID,0,
2009-08-15, 02:15:01,VALID,917.541,VALID,0,VALID,100,VALID,0,VALID,18.6285,VALID,166,VALID,0,
2009-08-15, 02:16:01,VALID,917.546,VALID,0,VALID,100,VALID,0,VALID,18.632,VALID,149,VALID,0,
2009-08-15, 02:17:00,VALID,917.532,VALID,0,VALID,100,VALID,0,VALID,18.6183,VALID,149,VALID,0,
2009-08-15, 02:18:00,VALID,917.521,VALID,0,VALID,100,VALID,0,VALID,18.6383,VALID,148,VALID,0,
2009-08-15, 02:19:01,VALID,917.5,VALID,0,VALID,100,VALID,0,VALID,18.6447,VALID,147,VALID,0,
2009-08-15, 02:20:01,VALID,917.489,VALID,0,VALID,100,VALID,0.0169808,VALID,18.6512,VALID,145,VALID,0,
2009-08-15, 02:21:01,VALID,917.484,VALID,0,VALID,100,VALID,0,VALID,18.6774,VALID,129,VALID,0,
2009-08-15, 02:22:01,VALID,917.488,VALID,0,VALID,100,VALID,0.0339617,VALID,18.6964,VALID,129,VALID,0,
2009-08-15, 02:23:01,VALID,917.473,VALID,0,VALID,100,VALID,0.0169808,VALID,18.7291,VALID,127,VALID,0,
2009-08-15, 02:24:01,VALID,917.473,VALID,0,VALID,100,VALID,0.0169808,VALID,18.765,VALID,131,VALID,0,
2009-08-15, 02:25:01,VALID,917.485,VALID,0,VALID,100,VALID,0.0339617,VALID,18.7807,VALID,136,VALID,0,
2009-08-15, 02:26:01,VALID,917.492,VALID,0,VALID,100,VALID,0.0169808,VALID,18.794,VALID,146,VALID,0,
2009-08-15, 02:27:01,VALID,917.491,VALID,0,VALID,100,VALID,0.0169808,VALID,18.8296,VALID,135,VALID,0.0078125,
2009-08-15, 02:28:00,VALID,917.507,VALID,0,VALID,100,VALID,0.0169808,VALID,18.8463,VALID,115,VALID,0.0125363,
2009-08-15, 02:29:00,VALID,917.522,VALID,0,VALID,100,VALID,0.0169808,VALID,18.8623,VALID,122,VALID,0,
2009-08-15, 02:30:00,VALID,917.535,VALID,0,VALID,100,VALID,-0.0169808,VALID,18.8656,VALID,125,VALID,0,
2009-08-15, 02:31:00,VALID,917.556,VALID,0,VALID,100,VALID,0,VALID,18.8586,VALID,122,VALID,0,
2009-08-15, 02:32:00,VALID,917.557,VALID,0,VALID,100,VALID,0,VALID,18.8456,VALID,119,VALID,0,
2009-08-15, 02:33:00,VALID,917.579,VALID,0,VALID,100,VALID,0.0169808,VALID,18.8262,VALID,108,VALID,0,
2009-08-15, 02:34:00,VALID,917.587,VALID,0,VALID,100,VALID,0.0169808,VALID,18.8493,VALID,99,VALID,0,
2009-08-15, 02:35:00,VALID,917.585,VALID,0,VALID,100,VALID,0.0339617,VALID,18.8231,VALID,92,VALID,0,
2009-08-15, 02:36:00,VALID,917.593,VALID,0,VALID,100,VALID,0,VALID,18.8037,VALID,101,VALID,0,
2009-08-15, 02:37:00,VALID,917.601,VALID,0,VALID,100,VALID,0.0339617,VALID,18.761,VALID,120,VALID,0,
2009-08-15, 02:38:00,VALID,917.587,VALID,0,VALID,100,VALID,0.0169808,VALID,18.7518,VALID,128,VALID,0,
2009-08-15, 02:39:00,VALID,917.568,VALID,0,VALID,100,VALID,0.0169808,VALID,18.7585,VALID,143,VALID,0,
2009-08-15, 02:40:00,VALID,917.547,VALID,0,VALID,100,VALID,0,VALID,18.7518,VALID,145,VALID,0,
2009-08-15, 02:41:00,VALID,917.528,VALID,0,VALID,100,VALID,0.0169808,VALID,18.7585,VALID,144,VALID,0,
2009-08-15, 02:42:00,VALID,917.512,VALID,0,VALID,100,VALID,0.0169808,VALID,18.7553,VALID,145,VALID,0.0360577,
2009-08-15, 02:43:00,VALID,917.506,VALID,0,VALID,100,VALID,-0.0339617,VALID,18.7727,VALID,141,VALID,0.00117188,
2009-08-15, 02:44:00,VALID,917.494,VALID,0,VALID,100,VALID,-0.0169808,VALID,18.7722,VALID,135,VALID,0.00218023,
2009-08-15, 02:45:00,VALID,917.489,VALID,0,VALID,100,VALID,0,VALID,18.7787,VALID,130,VALID,0.0762649,
2009-08-15, 02:46:00,VALID,917.485,VALID,0,VALID,100,VALID,0,VALID,18.769,VALID,133,VALID,0.0245808,
2009-08-15, 02:47:00,VALID,917.481,VALID,0,VALID,100,VALID,-0.0339617,VALID,18.7662,VALID,135,VALID,0,
2009-08-15, 02:48:00,VALID,917.464,VALID,0,VALID,100,VALID,-0.0169808,VALID,18.7662,VALID,144,VALID,0,
2009-08-15, 02:49:00,VALID,917.444,VALID,0,VALID,100,VALID,-0.0169808,VALID,18.7595,VALID,146,VALID,0,
2009-08-15, 02:50:00,VALID,917.429,VALID,0,VALID,100,VALID,-0.0339617,VALID,18.7532,VALID,140,VALID,0,
2009-08-15, 02:51:00,VALID,917.43,VALID,0,VALID,100,VALID,-0.0169808,VALID,18.7365,VALID,129,VALID,0,
2009-08-15, 02:52:00,VALID,917.421,VALID,0,VALID,100,VALID,-0.0169808,VALID,18.7365,VALID,128,VALID,0,
2009-08-15, 02:53:00,VALID,917.41,VALID,0,VALID,100,VALID,-0.0509425,VALID,18.7402,VALID,136,VALID,0,
2009-08-15, 02:54:00,VALID,917.401,VALID,0,VALID,100,VALID,-0.0509425,VALID,18.7303,VALID,147,VALID,0,
2009-08-15, 02:55:00,VALID,917.4,VALID,0,VALID,100,VALID,-0.0509425,VALID,18.7171,VALID,147,VALID,0,
2009-08-15, 02:56:00,VALID,917.391,VALID,0,VALID,100,VALID,0,VALID,18.7046,VALID,143,VALID,0,
2009-08-15, 02:57:00,VALID,917.398,VALID,0,VALID,100,VALID,0,VALID,18.6652,VALID,145,VALID,0,
2009-08-15, 02:58:00,VALID,917.41,VALID,0,VALID,100,VALID,-0.0169808,VALID,18.6557,VALID,144,VALID,0,
2009-08-15, 02:59:00,VALID,917.41,VALID,0,VALID,100,VALID,0,VALID,18.629,VALID,138,VALID,0.00111607,
2009-08-15, 03:00:00,VALID,917.431,VALID,0,VALID,100,VALID,-0.0169808,VALID,18.6394,VALID,164,VALID,0.00105574,
2009-08-15, 03:01:00,VALID,917.421,VALID,0,VALID,100,VALID,-0.0679233,VALID,18.6529,VALID,159,VALID,0,
2009-08-15, 03:02:00,VALID,917.415,VALID,0,VALID,100,VALID,-0.0509425,VALID,18.6656,VALID,168,VALID,0.254836,
2009-08-15, 03:03:00,VALID,917.406,VALID,0,VALID,100,VALID,-0.0169808,VALID,18.6716,VALID,166,VALID,0.0646802,
2009-08-15, 03:04:00,VALID,917.387,VALID,0,VALID,100,VALID,-0.0509425,VALID,18.6913,VALID,166,VALID,0.137074,
2009-08-15, 03:05:00,VALID,917.375,VALID,0,VALID,100,VALID,0,VALID,18.7043,VALID,170,VALID,0.146577,
2009-08-15, 03:06:00,VALID,917.357,VALID,0,VALID,100,VALID,-0.0169808,VALID,18.7402,VALID,159,VALID,0.0436046,
2009-08-15, 03:07:00,VALID,917.33,VALID,0,VALID,100,VALID,-0.0679233,VALID,18.7692,VALID,164,VALID,0.00334821,
2009-08-15, 03:08:00,VALID,917.33,VALID,0,VALID,100,VALID,-0.0169808,VALID,18.7954,VALID,162,VALID,0,
2009-08-15, 03:09:00,VALID,917.316,VALID,0,VALID,100,VALID,-0.0339617,VALID,18.8144,VALID,153,VALID,0.00114329,
2009-08-15, 03:10:00,VALID,917.296,VALID,0,VALID,100,VALID,0,VALID,18.8401,VALID,161,VALID,0.0543403,
2009-08-15, 03:11:00,VALID,917.273,VALID,0,VALID,100,VALID,-0.0509425,VALID,18.8825,VALID,150,VALID,0.199855,
2009-08-15, 03:12:00,VALID,917.274,VALID,0,VALID,100,VALID,0,VALID,18.9307,VALID,162,VALID,0.150856,
2009-08-15, 03:13:00,VALID,917.266,VALID,0,VALID,100,VALID,-0.0339617,VALID,18.9633,VALID,169,VALID,0.158918,
2009-08-15, 03:14:00,VALID,917.27,VALID,0,VALID,100,VALID,0,VALID,19.0125,VALID,164,VALID,0,
2009-08-15, 03:15:00,VALID,917.249,VALID,0,VALID,100,VALID,-0.0169808,VALID,19.0482,VALID,154,VALID,0.0883413,
2009-08-15, 03:16:00,VALID,917.244,VALID,0,VALID,100,VALID,-0.0509425,VALID,19.0873,VALID,162,VALID,0,
2009-08-15, 03:17:00,VALID,917.229,VALID,0,VALID,100,VALID,-0.0339617,VALID,19.1096,VALID,152,VALID,0,
2009-08-15, 03:18:00,VALID,917.212,VALID,0,VALID,100,VALID,-0.0169808,VALID,19.1258,VALID,156,VALID,0,
2009-08-15, 03:19:00,VALID,917.18,VALID,0,VALID,100,VALID,-0.0169808,VALID,19.1288,VALID,146,VALID,0.0357143,
2009-08-15, 03:20:00,VALID,917.153,VALID,0,VALID,100,VALID,-0.0169808,VALID,19.1353,VALID,142,VALID,0.0261052,
2009-08-15, 03:21:00,VALID,917.131,VALID,0,VALID,100,VALID,-0.0169808,VALID,19.1455,VALID,141,VALID,0.00876524,
2009-08-15, 03:22:00,VALID,917.118,VALID,0,VALID,100,VALID,-0.0169808,VALID,19.1388,VALID,135,VALID,0.0619284,
2009-08-15, 03:23:00,VALID,917.116,VALID,0,VALID,100,VALID,-0.0169808,VALID,19.1223,VALID,130,VALID,0,
2009-08-15, 03:24:00,VALID,917.118,VALID,0,VALID,100,VALID,-0.0169808,VALID,19.1163,VALID,125,VALID,0,
2009-08-15, 03:25:00,VALID,917.122,VALID,0,VALID,100,VALID,0,VALID,19.0966,VALID,122,VALID,0,
2009-08-15, 03:26:00,VALID,917.134,VALID,0,VALID,100,VALID,-0.0169808,VALID,19.0672,VALID,111,VALID,0.0756392,
2009-08-15, 03:27:00,VALID,917.136,VALID,0,VALID,100,VALID,-0.0169808,VALID,19.0544,VALID,121,VALID,0,
2009-08-15, 03:28:00,VALID,917.137,VALID,0,VALID,100,VALID,-0.0169808,VALID,19.0482,VALID,127,VALID,0.0166667,
2009-08-15, 03:29:00,VALID,917.126,VALID,0,VALID,100,VALID,-0.0169808,VALID,19.0289,VALID,132,VALID,0.00090843,
2009-08-15, 03:30:00,VALID,917.118,VALID,0,VALID,100,VALID,0,VALID,19.0157,VALID,133,VALID,0.289757,
2009-08-15, 03:31:00,VALID,917.113,VALID,0,VALID,100,VALID,-0.0169808,VALID,18.9995,VALID,137,VALID,0.207209,
2009-08-15, 03:32:00,VALID,917.123,VALID,0,VALID,100,VALID,-0.0339617,VALID,18.9965,VALID,138,VALID,0,
2009-08-15, 03:33:00,VALID,917.13,VALID,0,VALID,100,VALID,-0.0509425,VALID,18.9803,VALID,139,VALID,0.0279018,
2009-08-15, 03:34:00,VALID,917.141,VALID,0,VALID,100,VALID,0,VALID,18.9511,VALID,138,VALID,0.198264,
2009-08-15, 03:35:00,VALID,917.161,VALID,0,VALID,100,VALID,0,VALID,18.9309,VALID,126,VALID,0.373001,
2009-08-15, 03:36:00,VALID,917.171,VALID,0,VALID,100,VALID,-0.0509425,VALID,18.9314,VALID,132,VALID,0.176829,
2009-08-15, 03:37:00,VALID,917.168,VALID,0,VALID,100,VALID,0.0169808,VALID,18.9344,VALID,138,VALID,0.311719,
2009-08-15, 03:38:00,VALID,917.16,VALID,0,VALID,100,VALID,-0.0169808,VALID,18.9344,VALID,130,VALID,0.070503,
2009-08-15, 03:39:00,VALID,917.157,VALID,0,VALID,100,VALID,0.0169808,VALID,18.9411,VALID,140,VALID,0.200707,
2009-08-15, 03:40:00,VALID,917.165,VALID,0,VALID,100,VALID,0,VALID,18.9374,VALID,144,VALID,0.177431,
2009-08-15, 03:41:00,VALID,917.185,VALID,0,VALID,100,VALID,0,VALID,18.9307,VALID,142,VALID,0.0478277,
2009-08-15, 03:42:00,VALID,917.185,VALID,0,VALID,100,VALID,-0.0509425,VALID,18.9311,VALID,156,VALID,0.13681,
2009-08-15, 03:43:00,VALID,917.201,VALID,0,VALID,100,VALID,0,VALID,18.9179,VALID,155,VALID,0.0431641,
2009-08-15, 03:44:00,VALID,917.201,VALID,0,VALID,100,VALID,0,VALID,18.9219,VALID,150,VALID,0.134084,
2009-08-15, 03:45:00,VALID,917.187,VALID,0,VALID,100,VALID,-0.0849042,VALID,18.886,VALID,149,VALID,0.151278,
2009-08-15, 03:46:00,VALID,917.193,VALID,0,VALID,100,VALID,-0.0509425,VALID,18.8603,VALID,144,VALID,0.348656,
2009-08-15, 03:47:00,VALID,917.173,VALID,0,VALID,100,VALID,-0.0679233,VALID,18.8012,VALID,145,VALID,0.619048,